owner,sensor,date,latitude,longitude,vertical_datum,direction_of_sea_water_velocity,sea_water_speed,upward_sea_water_velocity,qcFlag 
TABS,ioos:station:wmo:42051:1,2007-07-01T00:00:00Z,29.6350,-93.6417,2.0,325.3173755,5.922313737,-99999.0,'11133222,11111222,99999999' 
TABS,ioos:station:wmo:42051:1,2007-07-01T00:30:00Z,29.6350,-93.6417,2.0,332.7501043,5.98414572,-99999.0,'11133222,11111222,99999999' 
TABS,ioos:station:wmo:42051:1,2007-07-01T01:00:00Z,29.6350,-93.6417,2.0,334.1792789,5.165752607,-99999.0,'11133222,11111222,99999999' 
TABS,ioos:station:wmo:42051:1,2007-07-01T01:30:00Z,29.6350,-93.6417,2.0,352.2191824,1.624961538,-99999.0,'11133222,11111222,99999999' 
TABS,ioos:station:wmo:42051:1,2007-07-01T02:00:00Z,29.6350,-93.6417,2.0,335.1055809,3.682132534,-99999.0,'11133222,11111222,99999999' 
TABS,ioos:station:wmo:42051:1,2007-07-01T02:30:00Z,29.6350,-93.6417,2.0,349.275787,1.343465668,-99999.0,'11133222,11111222,99999999' 
TABS,ioos:station:wmo:42051:1,2007-07-01T03:00:00Z,29.6350,-93.6417,2.0,320.5890188,2.976927947,-99999.0,'11133222,11111222,99999999' 
TABS,ioos:station:wmo:42051:1,2007-07-01T03:30:00Z,29.6350,-93.6417,2.0,9.335187093,3.698986348,-99999.0,'11133222,11111222,99999999' 
TABS,ioos:station:wmo:42051:1,2007-07-01T04:00:00Z,29.6350,-93.6417,2.0,343.6762079,3.949202451,-99999.0,'11133222,11111222,99999999' 
TABS,ioos:station:wmo:42051:1,2007-07-01T04:30:00Z,29.6350,-93.6417,2.0,4.085817685,2.245707016,-99999.0,'11133222,11111222,99999999' 
TABS,ioos:station:wmo:42051:1,2007-07-01T05:00:00Z,29.6350,-93.6417,2.0,10.92524333,4.379372101,-99999.0,'11133222,11111222,99999999' 
TABS,ioos:station:wmo:42051:1,2007-07-01T05:30:00Z,29.6350,-93.6417,2.0,349.2159378,4.061736082,-99999.0,'11133222,11111222,99999999' 
TABS,ioos:station:wmo:42051:1,2007-07-01T06:00:00Z,29.6350,-93.6417,2.0,339.1934681,8.023247472,-99999.0,'11133222,11111222,99999999' 
TABS,ioos:station:wmo:42051:1,2007-07-01T06:30:00Z,29.6350,-93.6417,2.0,332.4129871,5.765500846,-99999.0,'11133222,11111222,99999999' 
TABS,ioos:station:wmo:42051:1,2007-07-01T07:00:00Z,29.6350,-93.6417,2.0,330.0624848,4.789008248,-99999.0,'11133222,11111222,99999999' 
TABS,ioos:station:wmo:42051:1,2007-07-01T07:30:00Z,29.6350,-93.6417,2.0,325.878895,2.21054292,-99999.0,'11133222,11111222,99999999' 
TABS,ioos:station:wmo:42051:1,2007-07-01T08:00:00Z,29.6350,-93.6417,2.0,325.7974623,5.888378385,-99999.0,'11133222,11111222,99999999' 
TABS,ioos:station:wmo:42051:1,2007-07-01T08:30:00Z,29.6350,-93.6417,2.0,344.8049975,5.036069896,-99999.0,'11133222,11111222,99999999' 
TABS,ioos:station:wmo:42051:1,2007-07-01T09:00:00Z,29.6350,-93.6417,2.0,338.1812766,6.053668309,-99999.0,'11133222,11111222,99999999' 
TABS,ioos:station:wmo:42051:1,2007-07-01T09:30:00Z,29.6350,-93.6417,2.0,330.5817252,7.186689085,-99999.0,'11133222,11111222,99999999' 
TABS,ioos:station:wmo:42051:1,2007-07-01T10:00:00Z,29.6350,-93.6417,2.0,340.2013804,3.454185866,-99999.0,'11133222,11111222,99999999' 
TABS,ioos:station:wmo:42051:1,2007-07-01T10:30:00Z,29.6350,-93.6417,2.0,347.2674301,2.132439917,-99999.0,'11133222,11111222,99999999' 
TABS,ioos:station:wmo:42051:1,2007-07-01T11:00:00Z,29.6350,-93.6417,2.0,21.99756243,1.628557644,-99999.0,'11133222,11111222,99999999' 
TABS,ioos:station:wmo:42051:1,2007-07-01T11:30:00Z,29.6350,-93.6417,2.0,88.53120272,1.560512736,-99999.0,'11133222,11111222,99999999' 
TABS,ioos:station:wmo:42051:1,2007-07-01T12:00:00Z,29.6350,-93.6417,2.0,31.49587229,3.694238758,-99999.0,'11133222,11111222,99999999' 
TABS,ioos:station:wmo:42051:1,2007-07-01T12:30:00Z,29.6350,-93.6417,2.0,14.90282985,1.283160161,-99999.0,'11133222,11111222,99999999' 
TABS,ioos:station:wmo:42051:1,2007-07-01T13:00:00Z,29.6350,-93.6417,2.0,358.9907,2.270352396,-99999.0,'11133222,11111222,99999999' 
TABS,ioos:station:wmo:42051:1,2007-07-01T13:30:00Z,29.6350,-93.6417,2.0,35.00159576,4.968641665,-99999.0,'11133222,11111222,99999999' 
TABS,ioos:station:wmo:42051:1,2007-07-01T14:00:00Z,29.6350,-93.6417,2.0,118.3150135,5.418283861,-99999.0,'11133222,11111222,99999999' 
TABS,ioos:station:wmo:42051:1,2007-07-01T14:30:00Z,29.6350,-93.6417,2.0,83.2110413,4.652622916,-99999.0,'11133222,11111222,99999999' 
TABS,ioos:station:wmo:42051:1,2007-07-01T15:00:00Z,29.6350,-93.6417,2.0,124.3802643,2.532390175,-99999.0,'11133222,11111222,99999999' 
TABS,ioos:station:wmo:42051:1,2007-07-01T15:30:00Z,29.6350,-93.6417,2.0,143.3812732,2.28002193,-99999.0,'11133222,11111222,99999999' 
TABS,ioos:station:wmo:42051:1,2007-07-01T16:00:00Z,29.6350,-93.6417,2.0,99.76530307,3.419546754,-99999.0,'11133222,11111222,99999999' 
TABS,ioos:station:wmo:42051:1,2007-07-01T16:30:00Z,29.6350,-93.6417,2.0,103.7028579,3.334921288,-99999.0,'11133222,11111222,99999999' 
TABS,ioos:station:wmo:42051:1,2007-07-01T17:00:00Z,29.6350,-93.6417,2.0,124.5542971,10.29640714,-99999.0,'11111222,11111222,99999999' 
TABS,ioos:station:wmo:42051:1,2007-07-01T17:30:00Z,29.6350,-93.6417,2.0,156.8914116,6.675627311,-99999.0,'11133222,11111222,99999999' 
TABS,ioos:station:wmo:42051:1,2007-07-01T18:00:00Z,29.6350,-93.6417,2.0,183.8956284,2.796462051,-99999.0,'11133222,11111222,99999999' 
TABS,ioos:station:wmo:42051:1,2007-07-01T18:30:00Z,29.6350,-93.6417,2.0,137.1266073,5.335260069,-99999.0,'11133222,11111222,99999999' 
TABS,ioos:station:wmo:42051:1,2007-07-01T19:00:00Z,29.6350,-93.6417,2.0,159.3862088,3.493680008,-99999.0,'11133222,11111222,99999999' 
TABS,ioos:station:wmo:42051:1,2007-07-01T19:30:00Z,29.6350,-93.6417,2.0,199.9945543,4.182080822,-99999.0,'11133222,11111222,99999999' 
TABS,ioos:station:wmo:42051:1,2007-07-01T20:00:00Z,29.6350,-93.6417,2.0,210.9922221,3.417967232,-99999.0,'11133222,11111222,99999999' 
TABS,ioos:station:wmo:42051:1,2007-07-01T20:30:00Z,29.6350,-93.6417,2.0,310.7850554,7.792181979,-99999.0,'11133222,11111222,99999999' 
TABS,ioos:station:wmo:42051:1,2007-07-01T21:00:00Z,29.6350,-93.6417,2.0,286.5385066,7.834092162,-99999.0,'11133222,11111222,99999999' 
TABS,ioos:station:wmo:42051:1,2007-07-01T21:30:00Z,29.6350,-93.6417,2.0,313.650989,6.6062092,-99999.0,'11133222,11111222,99999999' 
TABS,ioos:station:wmo:42051:1,2007-07-01T22:00:00Z,29.6350,-93.6417,2.0,332.3224971,7.599592094,-99999.0,'11133222,11111222,99999999' 
TABS,ioos:station:wmo:42051:1,2007-07-01T22:30:00Z,29.6350,-93.6417,2.0,317.760488,4.551977592,-99999.0,'11133222,11111222,99999999' 
TABS,ioos:station:wmo:42051:1,2007-07-01T23:00:00Z,29.6350,-93.6417,2.0,291.3980769,3.426164036,-99999.0,'11133222,11111222,99999999' 
TABS,ioos:station:wmo:42051:1,2007-07-01T23:30:00Z,29.6350,-93.6417,2.0,295.8605782,7.634513737,-99999.0,'11133222,11111222,99999999' 
TABS,ioos:station:wmo:42051:1,2007-07-02T00:00:00Z,29.6350,-93.6417,2.0,340.5164171,3.627740344,-99999.0,'11133222,11111222,99999999' 
TABS,ioos:station:wmo:42051:1,2007-07-02T00:30:00Z,29.6350,-93.6417,2.0,309.1521532,5.274182401,-99999.0,'11133222,11111222,99999999' 
TABS,ioos:station:wmo:42051:1,2007-07-02T01:00:00Z,29.6350,-93.6417,2.0,315.0618577,6.58316793,-99999.0,'11133222,11111222,99999999' 
TABS,ioos:station:wmo:42051:1,2007-07-02T01:30:00Z,29.6350,-93.6417,2.0,326.4008793,5.258564443,-99999.0,'11133222,11111222,99999999' 
TABS,ioos:station:wmo:42051:1,2007-07-02T02:00:00Z,29.6350,-93.6417,2.0,318.1370601,14.08545704,-99999.0,'11111222,11111222,99999999' 
TABS,ioos:station:wmo:42051:1,2007-07-02T02:30:00Z,29.6350,-93.6417,2.0,323.9909985,13.98157716,-99999.0,'11111222,11111222,99999999' 
TABS,ioos:station:wmo:42051:1,2007-07-02T03:00:00Z,29.6350,-93.6417,2.0,332.4172585,15.3552662,-99999.0,'11111222,11111222,99999999' 
TABS,ioos:station:wmo:42051:1,2007-07-02T03:30:00Z,29.6350,-93.6417,2.0,337.8018335,17.15123319,-99999.0,'11111222,11111222,99999999' 
TABS,ioos:station:wmo:42051:1,2007-07-02T04:00:00Z,29.6350,-93.6417,2.0,346.181646,12.76959279,-99999.0,'11111222,11111222,99999999' 
TABS,ioos:station:wmo:42051:1,2007-07-02T04:30:00Z,29.6350,-93.6417,2.0,349.2573884,12.28531644,-99999.0,'11111222,11111222,99999999' 
TABS,ioos:station:wmo:42051:1,2007-07-02T05:00:00Z,29.6350,-93.6417,2.0,349.9145307,9.821776825,-99999.0,'11133222,11111222,99999999' 
TABS,ioos:station:wmo:42051:1,2007-07-02T05:30:00Z,29.6350,-93.6417,2.0,341.4119715,14.17970381,-99999.0,'11111222,11111222,99999999' 
TABS,ioos:station:wmo:42051:1,2007-07-02T06:00:00Z,29.6350,-93.6417,2.0,351.7718499,12.3673158,-99999.0,'11111222,11111222,99999999' 
TABS,ioos:station:wmo:42051:1,2007-07-02T06:30:00Z,29.6350,-93.6417,2.0,349.5842065,12.44508337,-99999.0,'11111222,11111222,99999999' 
TABS,ioos:station:wmo:42051:1,2007-07-02T07:00:00Z,29.6350,-93.6417,2.0,355.5862583,17.28125574,-99999.0,'11111222,11111222,99999999' 
TABS,ioos:station:wmo:42051:1,2007-07-02T07:30:00Z,29.6350,-93.6417,2.0,1.295761341,10.17260045,-99999.0,'11111222,11111222,99999999' 
TABS,ioos:station:wmo:42051:1,2007-07-02T08:00:00Z,29.6350,-93.6417,2.0,353.0667062,9.277849966,-99999.0,'11133222,11111222,99999999' 
TABS,ioos:station:wmo:42051:1,2007-07-02T08:30:00Z,29.6350,-93.6417,2.0,4.09703453,14.55719753,-99999.0,'11111222,11111222,99999999' 
TABS,ioos:station:wmo:42051:1,2007-07-02T09:00:00Z,29.6350,-93.6417,2.0,7.00484132,20.66423238,-99999.0,'11111222,11111222,99999999' 
TABS,ioos:station:wmo:42051:1,2007-07-02T09:30:00Z,29.6350,-93.6417,2.0,3.200264655,20.4218437,-99999.0,'11111222,11111222,99999999' 
TABS,ioos:station:wmo:42051:1,2007-07-02T10:00:00Z,29.6350,-93.6417,2.0,7.011841415,14.41782577,-99999.0,'11111222,11111222,99999999' 
TABS,ioos:station:wmo:42051:1,2007-07-02T10:30:00Z,29.6350,-93.6417,2.0,11.10718116,13.28891267,-99999.0,'11111222,11111222,99999999' 
TABS,ioos:station:wmo:42051:1,2007-07-02T11:00:00Z,29.6350,-93.6417,2.0,27.11504488,11.65045064,-99999.0,'11111222,11111222,99999999' 
TABS,ioos:station:wmo:42051:1,2007-07-02T11:30:00Z,29.6350,-93.6417,2.0,37.45620167,10.55655247,-99999.0,'11111222,11111222,99999999' 
TABS,ioos:station:wmo:42051:1,2007-07-02T12:00:00Z,29.6350,-93.6417,2.0,45.19632243,8.259055636,-99999.0,'11133222,11111222,99999999' 
TABS,ioos:station:wmo:42051:1,2007-07-02T12:30:00Z,29.6350,-93.6417,2.0,28.38778125,7.593056038,-99999.0,'11133222,11111222,99999999' 
TABS,ioos:station:wmo:42051:1,2007-07-02T13:00:00Z,29.6350,-93.6417,2.0,40.62564006,7.694524027,-99999.0,'11133222,11111222,99999999' 
TABS,ioos:station:wmo:42051:1,2007-07-02T13:30:00Z,29.6350,-93.6417,2.0,33.88325755,7.408063175,-99999.0,'11133222,11111222,99999999' 
TABS,ioos:station:wmo:42051:1,2007-07-02T14:00:00Z,29.6350,-93.6417,2.0,29.76349275,3.847557667,-99999.0,'11133222,11111222,99999999' 
TABS,ioos:station:wmo:42051:1,2007-07-02T14:30:00Z,29.6350,-93.6417,2.0,72.01270741,5.666974501,-99999.0,'11133222,11111222,99999999' 
TABS,ioos:station:wmo:42051:1,2007-07-02T15:00:00Z,29.6350,-93.6417,2.0,14.56386899,4.215447782,-99999.0,'11133222,11111222,99999999' 
TABS,ioos:station:wmo:42051:1,2007-07-02T15:30:00Z,29.6350,-93.6417,2.0,23.62953293,6.461772203,-99999.0,'11133222,11111222,99999999' 
TABS,ioos:station:wmo:42051:1,2007-07-02T16:00:00Z,29.6350,-93.6417,2.0,34.50865275,4.659957081,-99999.0,'11133222,11111222,99999999' 
TABS,ioos:station:wmo:42051:1,2007-07-02T16:30:00Z,29.6350,-93.6417,2.0,54.0958648,5.814825879,-99999.0,'11133222,11111222,99999999' 
TABS,ioos:station:wmo:42051:1,2007-07-02T17:00:00Z,29.6350,-93.6417,2.0,62.79206934,7.173757732,-99999.0,'11133222,11111222,99999999' 
TABS,ioos:station:wmo:42051:1,2007-07-02T17:30:00Z,29.6350,-93.6417,2.0,79.15267852,5.10114693,-99999.0,'11133222,11111222,99999999' 
TABS,ioos:station:wmo:42051:1,2007-07-02T18:00:00Z,29.6350,-93.6417,2.0,35.33372535,2.610938529,-99999.0,'11133222,11111222,99999999' 
TABS,ioos:station:wmo:42051:1,2007-07-02T18:30:00Z,29.6350,-93.6417,2.0,107.6160978,7.302444796,-99999.0,'11133222,11111222,99999999' 
TABS,ioos:station:wmo:42051:1,2007-07-02T19:00:00Z,29.6350,-93.6417,2.0,131.459682,6.298198155,-99999.0,'11133222,11111222,99999999' 
TABS,ioos:station:wmo:42051:1,2007-07-02T19:30:00Z,29.6350,-93.6417,2.0,131.8869939,6.380446693,-99999.0,'11133222,11111222,99999999' 
TABS,ioos:station:wmo:42051:1,2007-07-02T20:00:00Z,29.6350,-93.6417,2.0,145.9677413,5.57483632,-99999.0,'11133222,11111222,99999999' 
TABS,ioos:station:wmo:42051:1,2007-07-02T20:30:00Z,29.6350,-93.6417,2.0,171.8176823,9.345127072,-99999.0,'11133222,11111222,99999999' 
TABS,ioos:station:wmo:42051:1,2007-07-02T21:00:00Z,29.6350,-93.6417,2.0,199.551739,2.270946939,-99999.0,'11133222,11111222,99999999' 
TABS,ioos:station:wmo:42051:1,2007-07-02T21:30:00Z,29.6350,-93.6417,2.0,199.0193244,6.198386887,-99999.0,'11133222,11111222,99999999' 
TABS,ioos:station:wmo:42051:1,2007-07-02T22:00:00Z,29.6350,-93.6417,2.0,160.8813456,5.831654997,-99999.0,'11133222,11111222,99999999' 
TABS,ioos:station:wmo:42051:1,2007-07-02T22:30:00Z,29.6350,-93.6417,2.0,217.6554022,6.416603463,-99999.0,'11133222,11111222,99999999' 
TABS,ioos:station:wmo:42051:1,2007-07-03T03:30:00Z,29.6350,-93.6417,2.0,289.022038,14.20569604,-99999.0,'11111222,11111222,99999999' 
TABS,ioos:station:wmo:42051:1,2007-07-03T04:00:00Z,29.6350,-93.6417,2.0,300.092378,17.81047445,-99999.0,'11111222,11111222,99999999' 
TABS,ioos:station:wmo:42051:1,2007-07-03T04:30:00Z,29.6350,-93.6417,2.0,282.9950073,15.20949703,-99999.0,'11111222,11111222,99999999' 
TABS,ioos:station:wmo:42051:1,2007-07-03T05:00:00Z,29.6350,-93.6417,2.0,298.7925476,14.84528881,-99999.0,'11111222,11111222,99999999' 
TABS,ioos:station:wmo:42051:1,2007-07-03T05:30:00Z,29.6350,-93.6417,2.0,318.5627619,10.92469679,-99999.0,'11111222,11111222,99999999' 
TABS,ioos:station:wmo:42051:1,2007-07-03T06:00:00Z,29.6350,-93.6417,2.0,316.0172913,17.92798092,-99999.0,'11111222,11111222,99999999' 
TABS,ioos:station:wmo:42051:1,2007-07-03T06:30:00Z,29.6350,-93.6417,2.0,310.3674074,25.73792921,-99999.0,'11111222,11111222,99999999' 
TABS,ioos:station:wmo:42051:1,2007-07-03T07:00:00Z,29.6350,-93.6417,2.0,327.0542792,16.65905159,-99999.0,'11111222,11111222,99999999' 
TABS,ioos:station:wmo:42051:1,2007-07-03T07:30:00Z,29.6350,-93.6417,2.0,325.0374139,16.10692087,-99999.0,'11111222,11111222,99999999' 
TABS,ioos:station:wmo:42051:1,2007-07-03T08:00:00Z,29.6350,-93.6417,2.0,330.9215971,13.86802077,-99999.0,'11111222,11111222,99999999' 
TABS,ioos:station:wmo:42051:1,2007-07-03T08:30:00Z,29.6350,-93.6417,2.0,322.6509488,24.37885354,-99999.0,'11111222,11111222,99999999' 
TABS,ioos:station:wmo:42051:1,2007-07-03T09:00:00Z,29.6350,-93.6417,2.0,329.8038909,15.11038054,-99999.0,'11111222,11111222,99999999' 
TABS,ioos:station:wmo:42051:1,2007-07-03T09:30:00Z,29.6350,-93.6417,2.0,326.1267063,16.45249221,-99999.0,'11111222,11111222,99999999' 
TABS,ioos:station:wmo:42051:1,2007-07-03T10:00:00Z,29.6350,-93.6417,2.0,321.5948153,17.24019141,-99999.0,'11111222,11111222,99999999' 
TABS,ioos:station:wmo:42051:1,2007-07-03T10:30:00Z,29.6350,-93.6417,2.0,323.9626551,20.51616436,-99999.0,'11111222,11111222,99999999' 
TABS,ioos:station:wmo:42051:1,2007-07-03T11:00:00Z,29.6350,-93.6417,2.0,345.5962536,13.22574005,-99999.0,'11111222,11111222,99999999' 
TABS,ioos:station:wmo:42051:1,2007-07-03T11:30:00Z,29.6350,-93.6417,2.0,330.6991821,13.77198969,-99999.0,'11111222,11111222,99999999' 
TABS,ioos:station:wmo:42051:1,2007-07-03T12:00:00Z,29.6350,-93.6417,2.0,341.5480833,10.52089825,-99999.0,'11111222,11111222,99999999' 
TABS,ioos:station:wmo:42051:1,2007-07-03T12:30:00Z,29.6350,-93.6417,2.0,9.300244142,12.1902338,-99999.0,'11111222,11111222,99999999' 
TABS,ioos:station:wmo:42051:1,2007-07-03T13:00:00Z,29.6350,-93.6417,2.0,36.91530295,7.592002371,-99999.0,'11133222,11111222,99999999' 
TABS,ioos:station:wmo:42051:1,2007-07-03T13:30:00Z,29.6350,-93.6417,2.0,2.9834205,10.18380086,-99999.0,'11111222,11111222,99999999' 
TABS,ioos:station:wmo:42051:1,2007-07-03T14:00:00Z,29.6350,-93.6417,2.0,336.5016997,3.009584689,-99999.0,'11133222,11111222,99999999' 
TABS,ioos:station:wmo:42051:1,2007-07-03T14:30:00Z,29.6350,-93.6417,2.0,338.8390001,2.326907819,-99999.0,'11133222,11111222,99999999' 
TABS,ioos:station:wmo:42051:1,2007-07-03T15:00:00Z,29.6350,-93.6417,2.0,16.63221656,6.533337585,-99999.0,'11133222,11111222,99999999' 
TABS,ioos:station:wmo:42051:1,2007-07-03T15:30:00Z,29.6350,-93.6417,2.0,27.20783296,5.183531615,-99999.0,'11133222,11111222,99999999' 
TABS,ioos:station:wmo:42051:1,2007-07-03T16:00:00Z,29.6350,-93.6417,2.0,47.12119667,2.674696244,-99999.0,'11133222,11111222,99999999' 
TABS,ioos:station:wmo:42051:1,2007-07-03T16:30:00Z,29.6350,-93.6417,2.0,53.71703544,5.272276548,-99999.0,'11133222,11111222,99999999' 
TABS,ioos:station:wmo:42051:1,2007-07-03T17:00:00Z,29.6350,-93.6417,2.0,23.07056876,4.695529789,-99999.0,'11133222,11111222,99999999' 
TABS,ioos:station:wmo:42051:1,2007-07-03T17:30:00Z,29.6350,-93.6417,2.0,1.745521127,3.611675511,-99999.0,'11133222,11111222,99999999' 
TABS,ioos:station:wmo:42051:1,2007-07-03T18:00:00Z,29.6350,-93.6417,2.0,24.70258292,6.053998679,-99999.0,'11133222,11111222,99999999' 
TABS,ioos:station:wmo:42051:1,2007-07-03T18:30:00Z,29.6350,-93.6417,2.0,22.89070859,6.350070866,-99999.0,'11133222,11111222,99999999' 
TABS,ioos:station:wmo:42051:1,2007-07-03T19:00:00Z,29.6350,-93.6417,2.0,7.065943919,4.796425753,-99999.0,'11133222,11111222,99999999' 
TABS,ioos:station:wmo:42051:1,2007-07-03T19:30:00Z,29.6350,-93.6417,2.0,342.3253414,5.006325998,-99999.0,'11133222,11111222,99999999' 
TABS,ioos:station:wmo:42051:1,2007-07-03T20:00:00Z,29.6350,-93.6417,2.0,7.73641138,2.67434104,-99999.0,'11133222,11111222,99999999' 
TABS,ioos:station:wmo:42051:1,2007-07-03T20:30:00Z,29.6350,-93.6417,2.0,144.6886587,0.294108823,-99999.0,'11133222,11111222,99999999' 
TABS,ioos:station:wmo:42051:1,2007-07-03T21:00:00Z,29.6350,-93.6417,2.0,340.6157401,2.289803485,-99999.0,'11133222,11111222,99999999' 
TABS,ioos:station:wmo:42051:1,2007-07-03T21:30:00Z,29.6350,-93.6417,2.0,325.2073402,2.593703915,-99999.0,'11133222,11111222,99999999' 
TABS,ioos:station:wmo:42051:1,2007-07-03T22:00:00Z,29.6350,-93.6417,2.0,296.901451,3.05004918,-99999.0,'11133222,11111222,99999999' 
TABS,ioos:station:wmo:42051:1,2007-07-03T22:30:00Z,29.6350,-93.6417,2.0,268.2281135,0.970463807,-99999.0,'11133222,11111222,99999999' 
TABS,ioos:station:wmo:42051:1,2007-07-03T23:00:00Z,29.6350,-93.6417,2.0,313.9309212,2.652112366,-99999.0,'11133222,11111222,99999999' 
TABS,ioos:station:wmo:42051:1,2007-07-03T23:30:00Z,29.6350,-93.6417,2.0,275.6610154,4.562247253,-99999.0,'11133222,11111222,99999999' 
TABS,ioos:station:wmo:42051:1,2007-07-04T00:00:00Z,29.6350,-93.6417,2.0,287.0209067,5.12445119,-99999.0,'11133222,11111222,99999999' 
TABS,ioos:station:wmo:42051:1,2007-07-04T00:30:00Z,29.6350,-93.6417,2.0,276.1677782,10.98356955,-99999.0,'11111222,11111222,99999999' 
TABS,ioos:station:wmo:42051:1,2007-07-04T01:00:00Z,29.6350,-93.6417,2.0,282.9263898,10.01375055,-99999.0,'11111222,11111222,99999999' 
TABS,ioos:station:wmo:42051:1,2007-07-04T01:30:00Z,29.6350,-93.6417,2.0,306.4957563,6.120130718,-99999.0,'11133222,11111222,99999999' 
TABS,ioos:station:wmo:42051:1,2007-07-04T02:00:00Z,29.6350,-93.6417,2.0,296.7935646,8.984592367,-99999.0,'11133222,11111222,99999999' 
TABS,ioos:station:wmo:42051:1,2007-07-04T02:30:00Z,29.6350,-93.6417,2.0,284.4893374,7.674066719,-99999.0,'11133222,11111222,99999999' 
TABS,ioos:station:wmo:42051:1,2007-07-04T03:00:00Z,29.6350,-93.6417,2.0,279.4216046,9.163601912,-99999.0,'11133222,11111222,99999999' 
TABS,ioos:station:wmo:42051:1,2007-07-04T03:30:00Z,29.6350,-93.6417,2.0,290.4887604,12.88506888,-99999.0,'11111222,11111222,99999999' 
TABS,ioos:station:wmo:42051:1,2007-07-04T04:00:00Z,29.6350,-93.6417,2.0,295.0683005,17.63070617,-99999.0,'11111222,11111222,99999999' 
TABS,ioos:station:wmo:42051:1,2007-07-04T04:30:00Z,29.6350,-93.6417,2.0,285.7538071,18.85833768,-99999.0,'11111222,11111222,99999999' 
TABS,ioos:station:wmo:42051:1,2007-07-04T05:00:00Z,29.6350,-93.6417,2.0,293.2075254,17.56092253,-99999.0,'11111222,11111222,99999999' 
TABS,ioos:station:wmo:42051:1,2007-07-04T05:30:00Z,29.6350,-93.6417,2.0,297.1299455,19.51734869,-99999.0,'11111222,11111222,99999999' 
TABS,ioos:station:wmo:42051:1,2007-07-04T06:00:00Z,29.6350,-93.6417,2.0,298.9453454,21.32364884,-99999.0,'11111222,11111222,99999999' 
TABS,ioos:station:wmo:42051:1,2007-07-04T06:30:00Z,29.6350,-93.6417,2.0,301.7225953,26.16954719,-99999.0,'11111222,11111222,99999999' 
TABS,ioos:station:wmo:42051:1,2007-07-04T07:00:00Z,29.6350,-93.6417,2.0,294.3280437,20.39059587,-99999.0,'11111222,11111222,99999999' 
TABS,ioos:station:wmo:42051:1,2007-07-04T07:30:00Z,29.6350,-93.6417,2.0,299.8261777,15.8032813,-99999.0,'11111222,11111222,99999999' 
TABS,ioos:station:wmo:42051:1,2007-07-04T08:00:00Z,29.6350,-93.6417,2.0,293.1142302,18.64684692,-99999.0,'11111222,11111222,99999999' 
TABS,ioos:station:wmo:42051:1,2007-07-04T08:30:00Z,29.6350,-93.6417,2.0,295.8403826,16.61084284,-99999.0,'11111222,11111222,99999999' 
TABS,ioos:station:wmo:42051:1,2007-07-04T09:00:00Z,29.6350,-93.6417,2.0,276.3688976,11.17898475,-99999.0,'11111222,11111222,99999999' 
TABS,ioos:station:wmo:42051:1,2007-07-04T09:30:00Z,29.6350,-93.6417,2.0,281.8076217,19.20637655,-99999.0,'11111222,11111222,99999999' 
TABS,ioos:station:wmo:42051:1,2007-07-04T10:00:00Z,29.6350,-93.6417,2.0,278.1153547,21.39422352,-99999.0,'11111222,11111222,99999999' 
TABS,ioos:station:wmo:42051:1,2007-07-04T10:30:00Z,29.6350,-93.6417,2.0,262.4456486,12.09496589,-99999.0,'11111222,11111222,99999999' 
TABS,ioos:station:wmo:42051:1,2007-07-04T11:00:00Z,29.6350,-93.6417,2.0,262.6448467,7.733627868,-99999.0,'11133222,11111222,99999999' 
TABS,ioos:station:wmo:42051:1,2007-07-04T11:30:00Z,29.6350,-93.6417,2.0,260.1360197,11.0330866,-99999.0,'11111222,11111222,99999999' 
TABS,ioos:station:wmo:42051:1,2007-07-04T12:00:00Z,29.6350,-93.6417,2.0,256.0234198,20.82654556,-99999.0,'11111222,11111222,99999999' 
TABS,ioos:station:wmo:42051:1,2007-07-04T12:30:00Z,29.6350,-93.6417,2.0,262.1603341,12.53716475,-99999.0,'11111222,11111222,99999999' 
TABS,ioos:station:wmo:42051:1,2007-07-04T13:00:00Z,29.6350,-93.6417,2.0,282.6713066,11.80756114,-99999.0,'11111222,11111222,99999999' 
TABS,ioos:station:wmo:42051:1,2007-07-04T13:30:00Z,29.6350,-93.6417,2.0,268.9106694,9.471710511,-99999.0,'11133222,11111222,99999999' 
TABS,ioos:station:wmo:42051:1,2007-07-04T14:00:00Z,29.6350,-93.6417,2.0,267.4279923,10.92099812,-99999.0,'11111222,11111222,99999999' 
TABS,ioos:station:wmo:42051:1,2007-07-04T14:30:00Z,29.6350,-93.6417,2.0,248.4004132,14.20763879,-99999.0,'11111222,11111222,99999999' 
TABS,ioos:station:wmo:42051:1,2007-07-04T15:00:00Z,29.6350,-93.6417,2.0,278.5756335,8.919714121,-99999.0,'11133222,11111222,99999999' 
TABS,ioos:station:wmo:42051:1,2007-07-04T15:30:00Z,29.6350,-93.6417,2.0,263.854902,9.062063783,-99999.0,'11133222,11111222,99999999' 
TABS,ioos:station:wmo:42051:1,2007-07-04T16:00:00Z,29.6350,-93.6417,2.0,259.9580041,13.82172927,-99999.0,'11111222,11111222,99999999' 
TABS,ioos:station:wmo:42051:1,2007-07-04T16:30:00Z,29.6350,-93.6417,2.0,254.0895881,8.90096624,-99999.0,'11133222,11111222,99999999' 
TABS,ioos:station:wmo:42051:1,2007-07-04T17:00:00Z,29.6350,-93.6417,2.0,278.511573,7.22961963,-99999.0,'11133222,11111222,99999999' 
TABS,ioos:station:wmo:42051:1,2007-07-04T17:30:00Z,29.6350,-93.6417,2.0,265.2682066,8.850158191,-99999.0,'11133222,11111222,99999999' 
TABS,ioos:station:wmo:42051:1,2007-07-04T18:00:00Z,29.6350,-93.6417,2.0,273.1689103,11.21714759,-99999.0,'11111222,11111222,99999999' 
TABS,ioos:station:wmo:42051:1,2007-07-04T18:30:00Z,29.6350,-93.6417,2.0,281.174233,9.082163839,-99999.0,'11133222,11111222,99999999' 
TABS,ioos:station:wmo:42051:1,2007-07-04T19:00:00Z,29.6350,-93.6417,2.0,288.6877287,8.61412793,-99999.0,'11133222,11111222,99999999' 
TABS,ioos:station:wmo:42051:1,2007-07-04T19:30:00Z,29.6350,-93.6417,2.0,283.888751,8.457245414,-99999.0,'11133222,11111222,99999999' 
TABS,ioos:station:wmo:42051:1,2007-07-04T20:00:00Z,29.6350,-93.6417,2.0,289.3317714,11.11676662,-99999.0,'11111222,11111222,99999999' 
TABS,ioos:station:wmo:42051:1,2007-07-04T20:30:00Z,29.6350,-93.6417,2.0,295.9426557,12.75528518,-99999.0,'11111222,11111222,99999999' 